Regional Weather Roundup
Issued by NWS Sioux Falls, SD

Home | Current Version | Previous Version | Text Only | Print | Product List | Glossary On
Versions: 1 2 3 4 5 6 7 8 9 10 11 12 13 14 15 16 17 18 19 20 21 22 23 24 25 26 27 28 29 30 31 32 33 34 35 36 37 38 39 40 41 42 43 44 45 46 47 48 49 50
000
ASUS43 KFSD 230910
RWRFSD

WEATHER ROUNDUP FOR SE SOUTH DAKOTA/SW MINNESOTA/NW IOWA
NATIONAL WEATHER SERVICE SIOUX FALLS SD
400 AM CDT THU MAR 23 2017

NOTE: "FAIR" INDICATES FEW OR NO CLOUDS BELOW 12,000 FEET WITH NO
SIGNIFICANT WEATHER AND OR OBSTRUCTIONS TO VISIBILITY.


SDZ038>040-050-052>070-231000-
SOUTHEAST SOUTH DAKOTA

CITY           SKY/WX    TMP DP  RH WIND       PRES   REMARKS
BROOKINGS      CLOUDY    38  26  62 S18G26    29.98F
CHAMBERLAIN    PTCLDY    38  29  72 E5        29.85F
HURON          CLOUDY    40  29  64 SE16G24   29.91F
MADISON        CLOUDY    37  28  70 S17       29.98F
MITCHELL       PTCLDY    41  29  62 SE17      29.93F
SIOUX FALLS    CLOUDY    41  26  55 S14       30.01F
WINNER         FAIR      47  31  53 S30G38    29.80F
YANKTON        CLOUDY    41  27  56 SE17      29.97F
$$

MNZ071-072-080-081-089-090-097-098-231000-
SOUTHWEST MINNESOTA

CITY           SKY/WX    TMP DP  RH WIND       PRES   REMARKS
FAIRMONT       CLOUDY    36  24  62 S21       30.13F
JACKSON        CLOUDY    36  27  69 SE13G18   30.11F
LUVERNE        CLOUDY    37  27  65 S13       30.04F
MARSHALL       CLOUDY    38  26  62 S17       30.04F
MONTEVIDEO     CLOUDY    37  27  65 S14G21    30.06F
PIPESTONE      CLOUDY    37  23  56 S17       30.01F
REDWOOD FALLS  CLOUDY    37  24  59 SE17      30.09F
TRACY          CLOUDY    38  27  64 S17G24    30.05F
WINDOM         CLOUDY    36  25  64 SE16G22   30.09F
WORTHINGTON    CLOUDY    37  24  59 SE15      30.07
$$

IAZ001>003-012>014-020>022-031-032-NEZ013-014-SDZ071-231000-
NORTHWEST IOWA

CITY           SKY/WX    TMP DP  RH WIND       PRES   REMARKS
CHEROKEE       CLOUDY    40  23  49 S7        30.08F
DENISON        CLOUDY    41  21  45 SE9G16    30.08F
ESTHERVILLE    CLOUDY    34  26  72 SE18      30.12F WCI  23
LE MARS        CLOUDY    41  25  52 S12       30.06F
ORANGE CITY    CLOUDY    39  27  60 SE10      30.05F
SHELDON        CLOUDY    39  27  60 SE16      30.04F
SIOUX CITY     CLOUDY    42  26  53 SE13G21   30.05F
SPENCER        CLOUDY    39  22  50 SE17      30.10F
STORM LAKE     CLOUDY    39  21  48 SE18G25   30.08F
$$

ABBREVIATIONS USED IN REMARKS
   TC - TEMPERATURE IN CELSIUS
  WCI - WIND CHILL INDEX
   HX - HEAT INDEX
  VSB - VISIBILITY





USA.gov is the U.S. government's official web portal to all federal, state and local government web resources and services.